TimeCST,TemperatureF,Dew PointF,Humidity,Sea Level PressureIn,VisibilityMPH,Wind Direction,Wind SpeedMPH,Gust SpeedMPH,PrecipitationIn,Events,Conditions,WindDirDegrees,DateUTC
12:15 AM,-6.0,-9.4,85,30.03,10.0,SSW,4.6,-,N/A,,Clear,200,2012-12-30 06:15:00
12:35 AM,-4.2,-7.4,86,30.04,10.0,South,3.5,-,N/A,,Clear,190,2012-12-30 06:35:00
12:55 AM,-4.9,-8.3,85,30.03,10.0,Calm,Calm,-,N/A,,Clear,0,2012-12-30 06:55:00
1:15 AM,-6.0,-9.4,85,30.02,10.0,SSE,3.5,-,N/A,,Clear,150,2012-12-30 07:15:00
1:35 AM,-6.2,-9.8,84,30.02,10.0,SSE,3.5,-,N/A,,Clear,150,2012-12-30 07:35:00
1:55 AM,-6.0,-9.6,84,30.03,10.0,Calm,Calm,-,N/A,,Clear,0,2012-12-30 07:55:00
2:15 AM,-5.8,-9.4,84,30.03,10.0,Calm,Calm,-,N/A,,Scattered Clouds,0,2012-12-30 08:15:00
2:35 AM,-4.7,-8.5,84,30.04,10.0,SSE,3.5,-,N/A,,Mostly Cloudy,160,2012-12-30 08:35:00
2:55 AM,-2.4,-5.8,85,30.04,10.0,South,3.5,-,N/A,,Overcast,190,2012-12-30 08:55:00
3:15 AM,-0.9,-4.4,85,30.04,10.0,Calm,Calm,-,N/A,,Overcast,0,2012-12-30 09:15:00
3:35 AM,-0.4,-4.0,85,30.04,10.0,Calm,Calm,-,N/A,,Overcast,0,2012-12-30 09:35:00
3:55 AM,-0.2,-3.3,87,30.03,5.0,SSE,3.5,-,N/A,,Overcast,160,2012-12-30 09:55:00
4:15 AM,0.7,-2.0,88,30.02,5.0,SE,3.5,-,N/A,,Overcast,140,2012-12-30 10:15:00
4:35 AM,1.2,-1.7,88,30.02,7.0,SSE,4.6,-,N/A,,Overcast,150,2012-12-30 10:35:00
4:55 AM,1.8,-1.1,88,30.01,7.0,SSE,3.5,-,N/A,,Overcast,160,2012-12-30 10:55:00
5:15 AM,2.8,-0.0,88,29.99,7.0,SSE,4.6,-,N/A,,Overcast,150,2012-12-30 11:15:00
5:35 AM,3.7,0.9,88,29.99,7.0,South,3.5,-,N/A,Snow,Light Snow,170,2012-12-30 11:35:00
5:55 AM,4.6,1.9,89,29.99,7.0,South,3.5,-,N/A,,Overcast,170,2012-12-30 11:55:00
6:15 AM,5.5,2.8,89,29.98,7.0,SSE,4.6,-,N/A,Snow,Light Snow,150,2012-12-30 12:15:00
6:55 AM,7.0,4.3,89,29.98,10.0,South,4.6,-,N/A,,Overcast,180,2012-12-30 12:55:00
7:15 AM,7.3,5.0,90,29.97,5.0,South,5.8,-,N/A,Snow,Light Snow,180,2012-12-30 13:15:00
7:35 AM,7.2,4.6,89,29.97,7.0,South,5.8,-,N/A,,Overcast,170,2012-12-30 13:35:00
7:55 AM,7.0,4.6,90,29.97,5.0,South,4.6,-,N/A,Snow,Light Snow,180,2012-12-30 13:55:00
8:15 AM,6.6,4.1,89,29.97,4.0,South,3.5,-,N/A,Snow,Light Snow,170,2012-12-30 14:15:00
8:35 AM,6.4,3.7,89,29.96,5.0,SSE,3.5,-,N/A,Snow,Light Snow,160,2012-12-30 14:35:00
8:55 AM,6.4,3.7,89,29.95,7.0,South,5.8,-,N/A,Snow,Light Snow,170,2012-12-30 14:55:00
9:15 AM,6.8,4.1,89,29.96,7.0,South,4.6,-,N/A,Snow,Light Snow,170,2012-12-30 15:15:00
9:35 AM,6.8,4.1,89,29.96,5.0,SSE,6.9,-,N/A,Snow,Light Snow,160,2012-12-30 15:35:00
9:55 AM,7.7,5.2,89,29.96,7.0,South,6.9,-,N/A,Snow,Light Snow,170,2012-12-30 15:55:00
10:15 AM,9.1,6.8,90,29.95,7.0,South,8.1,-,N/A,,Overcast,180,2012-12-30 16:15:00
10:35 AM,10.0,7.5,90,29.94,5.0,South,9.2,-,N/A,Snow,Light Snow,170,2012-12-30 16:35:00
10:55 AM,10.2,7.7,90,29.93,10.0,South,8.1,-,N/A,,Mostly Cloudy,170,2012-12-30 16:55:00
11:15 AM,10.9,8.4,90,29.92,7.0,South,6.9,-,N/A,,Overcast,170,2012-12-30 17:15:00
11:35 AM,12.7,10.2,90,29.91,10.0,South,6.9,-,N/A,,Overcast,180,2012-12-30 17:35:00
11:55 AM,13.6,11.1,90,29.89,10.0,South,6.9,-,N/A,,Overcast,180,2012-12-30 17:55:00
12:15 PM,15.6,12.9,89,29.87,10.0,South,5.8,-,N/A,,Overcast,190,2012-12-30 18:15:00
12:35 PM,18.0,14.4,86,29.86,10.0,South,6.9,-,N/A,,Overcast,190,2012-12-30 18:35:00
12:55 PM,19.0,13.8,80,29.84,10.0,SSE,8.1,-,N/A,,Scattered Clouds,160,2012-12-30 18:55:00
1:15 PM,20.3,13.6,75,29.82,10.0,South,8.1,-,N/A,,Clear,170,2012-12-30 19:15:00
1:35 PM,21.9,14.4,73,29.81,10.0,South,10.4,-,N/A,,Clear,190,2012-12-30 19:35:00
1:55 PM,23.0,14.5,70,29.80,10.0,South,8.1,-,N/A,,Clear,190,2012-12-30 19:55:00
2:15 PM,22.8,14.7,71,29.80,10.0,SW,4.6,-,N/A,,Clear,220,2012-12-30 20:15:00
2:35 PM,23.2,15.3,72,29.80,10.0,SSW,4.6,-,N/A,,Clear,210,2012-12-30 20:35:00
2:55 PM,23.4,15.8,73,29.80,10.0,SSW,5.8,-,N/A,,Clear,210,2012-12-30 20:55:00
3:15 PM,22.8,15.6,74,29.80,10.0,SSW,4.6,-,N/A,,Clear,200,2012-12-30 21:15:00
3:35 PM,23.2,15.8,73,29.80,10.0,SW,4.6,-,N/A,,Clear,230,2012-12-30 21:35:00
3:55 PM,23.0,16.3,76,29.81,10.0,West,12.7,-,N/A,,Scattered Clouds,260,2012-12-30 21:55:00
4:15 PM,23.2,16.3,75,29.81,10.0,WSW,10.4,-,N/A,,Mostly Cloudy,250,2012-12-30 22:15:00
4:35 PM,22.3,15.8,76,29.82,10.0,West,9.2,-,N/A,,Scattered Clouds,260,2012-12-30 22:35:00
4:55 PM,21.7,15.6,77,29.82,10.0,West,11.5,-,N/A,,Scattered Clouds,270,2012-12-30 22:55:00
5:15 PM,21.0,15.4,79,29.83,10.0,West,11.5,-,N/A,,Mostly Cloudy,270,2012-12-30 23:15:00
5:35 PM,20.5,15.3,80,29.83,10.0,West,11.5,-,N/A,,Overcast,270,2012-12-30 23:35:00
5:55 PM,19.4,14.5,81,29.84,7.0,West,11.5,-,N/A,Snow,Light Snow,280,2012-12-30 23:55:00
6:15 PM,18.0,13.6,83,29.85,10.0,West,12.7,-,N/A,Snow,Light Snow,280,2012-12-31 00:15:00
6:35 PM,17.4,13.1,83,29.85,10.0,WNW,12.7,-,N/A,,Overcast,290,2012-12-31 00:35:00
6:55 PM,16.7,12.9,85,29.86,10.0,WNW,11.5,-,N/A,,Overcast,300,2012-12-31 00:55:00
7:15 PM,16.0,12.6,86,29.87,10.0,WNW,17.3,-,N/A,,Overcast,300,2012-12-31 01:15:00
7:35 PM,15.4,12.0,86,29.88,10.0,NW,18.4,-,N/A,,Overcast,310,2012-12-31 01:35:00
7:55 PM,14.4,10.8,86,29.89,7.0,WNW,20.7,-,N/A,Snow,Light Snow,300,2012-12-31 01:55:00
8:15 PM,13.6,10.4,87,29.90,10.0,NW,16.1,21.9,N/A,Snow,Light Snow,310,2012-12-31 02:15:00
8:35 PM,13.6,10.0,86,29.90,7.0,NW,17.3,-,N/A,Snow,Light Snow,310,2012-12-31 02:35:00
8:55 PM,13.1,9.5,86,29.92,7.0,NW,19.6,25.3,N/A,Snow,Light Snow,310,2012-12-31 02:55:00
9:15 PM,12.9,8.8,84,29.92,5.0,NW,13.8,19.6,N/A,Snow,Light Snow,310,2012-12-31 03:15:00
9:35 PM,12.6,8.1,82,29.93,10.0,NW,19.6,24.2,N/A,Snow,Light Snow,310,2012-12-31 03:35:00
9:55 PM,12.4,7.3,80,29.94,10.0,NW,15.0,-,N/A,Snow,Light Snow,310,2012-12-31 03:55:00
10:15 PM,11.7,6.8,81,29.94,10.0,NW,13.8,-,N/A,,Overcast,310,2012-12-31 04:15:00
10:35 PM,10.8,5.9,81,29.95,10.0,WNW,9.2,-,N/A,,Mostly Cloudy,290,2012-12-31 04:35:00
10:55 PM,9.3,5.2,83,29.96,10.0,WNW,10.4,-,N/A,Snow,Light Snow,300,2012-12-31 04:55:00
11:15 PM,10.4,6.4,84,29.96,7.0,NW,17.3,24.2,N/A,Snow,Light Snow,310,2012-12-31 05:15:00
11:35 PM,10.2,6.4,85,29.95,5.0,NW,17.3,-,N/A,Snow,Light Snow,310,2012-12-31 05:35:00
11:55 PM,9.1,5.4,85,29.96,10.0,NW,15.0,-,N/A,Snow,Light Snow,310,2012-12-31 05:55:00